CW0214 Weather Reports


Display with metric or nautical units.
time (UTC)temp
F
wind
direction
speed
MPH
gust
MPH
rain 1hr
in
rain 24hr
in
rain mn
in
humidity
%
barometer
mb
20260906214404 72 107 1.0 8.0 0.00 0.00 0.00 75 1022.4
20260906213904 73 129 1.0 5.0 0.00 0.00 0.00 75 1022.4
20260906213404 73 136 2.0 7.0 0.00 0.00 0.00 75 1022.4
20260906212904 73 194 0.0 0.0 0.00 0.00 0.00 74 1022.4
20260906212405 73 115 3.0 9.0 0.00 0.00 0.00 74 1022.4
20260906211904 74 149 1.0 6.0 0.00 0.00 0.00 74 1022.4
20260906211405 74 177 1.0 9.0 0.00 0.00 0.00 73 1022.5
20260906210906 74 175 0.0 8.0 0.00 0.00 0.00 73 1022.4
20260906210404 74 126 1.0 6.0 0.00 0.00 0.00 72 1022.4
20260906205905 75 92 1.0 7.0 0.00 0.00 0.00 71 1022.3
20260906205405 75 112 0.0 6.0 0.00 0.00 0.00 70 1022.2
20260906204404 76 115 0.0 5.0 0.00 0.00 0.00 69 1022.1
20260906203904 76 173 1.0 5.0 0.00 0.00 0.00 68 1021.9
20260906202904 76 55 0.0 0.0 0.00 0.00 0.00 66 1021.7
20260906201905 77 156 0.0 7.0 0.00 0.00 0.00 65 1021.6
20260906201404 77 90 1.0 5.0 0.00 0.00 0.00 64 1021.5
20260906200905 77 75 0.0 7.0 0.00 0.00 0.00 64 1021.5
20260906200404 78 155 1.0 7.0 0.00 0.00 0.00 63 1021.4
20260906195904 78 156 1.0 12.0 0.00 0.00 0.00 62 1021.4
20260906195406 78 138 3.0 9.0 0.00 0.00 0.00 62 1021.3
20260906194904 78 120 3.0 14.0 0.00 0.00 0.00 61 1021.4
20260906194404 79 131 3.0 12.0 0.00 0.00 0.00 60 1021.4
20260906193904 79 136 1.0 9.0 0.00 0.00 0.00 59 1021.4
20260906193404 79 112 3.0 14.0 0.00 0.00 0.00 58 1021.4
20260906192904 80 106 0.0 9.0 0.00 0.00 0.00 57 1021.4
20260906192406 80 111 2.0 10.0 0.00 0.00 0.00 57 1021.3
20260906191906 81 121 5.0 12.0 0.00 0.00 0.00 57 1021.2
20260906191406 81 155 2.0 9.0 0.00 0.00 0.00 57 1021.3
20260906190906 81 121 1.0 7.0 0.00 0.00 0.00 57 1021.1
20260906190406 82 152 2.0 10.0 0.00 0.00 0.00 56 1021.1
20260906185905 82 104 1.0 10.0 0.00 0.00 0.00 56 1021.0
20260906185406 83 103 1.0 9.0 0.00 0.00 0.00 56 1021.1
20260906183906 84 98 0.0 5.0 0.00 0.00 0.00 55 1021.0
20260906182906 84 90 0.0 8.0 0.00 0.00 0.00 54 1021.0
20260906181906 85 104 0.0 8.0 0.00 0.00 0.00 52 1021.0
20260906181406 85 91 1.0 8.0 0.00 0.00 0.00 51 1020.9
20260906180906 86 107 1.0 7.0 0.00 0.00 0.00 50 1020.9
20260906180406 86 170 1.0 7.0 0.00 0.00 0.00 50 1020.9
20260906175905 86 118 2.0 9.0 0.00 0.00 0.00 50 1020.9
20260906175405 86 97 1.0 9.0 0.00 0.00 0.00 51 1020.9
20260906174905 87 96 2.0 9.0 0.00 0.00 0.00 51 1020.8
20260906174406 87 57 0.0 6.0 0.00 0.00 0.00 51 1020.8
20260906173905 87 89 1.0 10.0 0.00 0.00 0.00 51 1020.8
20260906173406 87 83 0.0 5.0 0.00 0.00 0.00 51 1020.7
20260906172905 87 115 1.0 7.0 0.00 0.00 0.00 51 1020.7
20260906172405 88 87 1.0 8.0 0.00 0.00 0.00 50 1020.7
20260906171905 88 91 3.0 16.0 0.00 0.00 0.00 50 1020.6
20260906171405 88 84 1.0 8.0 0.00 0.00 0.00 49 1020.6
20260906170905 89 108 1.0 9.0 0.00 0.00 0.00 49 1020.5
20260906164905 90 135 3.0 13.0 0.00 0.00 0.00 47 1020.4
20260906164406 90 121 2.0 15.0 0.00 0.00 0.00 46 1020.4
20260906163905 90 113 5.0 12.0 0.00 0.00 0.00 44 1020.3
20260906163405 91 85 2.0 12.0 0.00 0.00 0.00 43 1020.3
20260906162905 91 72 1.0 10.0 0.00 0.00 0.00 43 1020.3
20260906162406 91 93 1.0 10.0 0.00 0.00 0.00 43 1020.3
20260906161906 91 80 2.0 13.0 0.00 0.00 0.00 43 1020.3
20260906161405 91 119 3.0 9.0 0.00 0.00 0.00 43 1020.2
20260906160905 91 100 2.0 12.0 0.00 0.00 0.00 44 1020.2
20260906160405 91 197 1.0 7.0 0.00 0.00 0.00 44 1020.2
20260906155905 92 103 2.0 12.0 0.00 0.00 0.00 43 1020.2
20260906154905 92 72 0.0 6.0 0.00 0.00 0.00 43 1020.2
20260906153905 93 113 3.0 12.0 0.00 0.00 0.00 42 1020.1
20260906153405 93 105 5.0 10.0 0.00 0.00 0.00 41 1020.1
20260906152906 93 145 3.0 9.0 0.00 0.00 0.00 42 1020.1
20260906152406 93 152 2.0 9.0 0.00 0.00 0.00 41 1020.1
20260906151406 93 86 2.0 7.0 0.00 0.00 0.00 41 1020.1
20260906150905 93 211 1.0 7.0 0.00 0.00 0.00 41 1020.1
20260906150405 93 350 2.0 6.0 0.00 0.00 0.00 42 1020.2
20260906145906 93 70 2.0 8.0 0.00 0.00 0.00 41 1020.2
20260906145405 93 148 0.0 8.0 0.00 0.00 0.00 42 1020.2
20260906144905 93 55 1.0 5.0 0.00 0.00 0.00 40 1020.4
20260906144405 93 122 1.0 8.0 0.00 0.00 0.00 41 1020.4
20260906143905 93 271 1.0 9.0 0.00 0.00 0.00 41 1020.5
20260906143405 94 73 1.0 8.0 0.00 0.00 0.00 42 1020.4
20260906142906 93 49 0.0 8.0 0.00 0.00 0.00 42 1020.4
20260906142405 93 118 2.0 10.0 0.00 0.00 0.00 43 1020.6
20260906141905 93 131 3.0 12.0 0.00 0.00 0.00 42 1020.6
20260906141406 93 148 2.0 7.0 0.00 0.00 0.00 42 1020.6
20260906140905 93 82 1.0 7.0 0.00 0.00 0.00 42 1020.7
20260906135905 92 150 3.0 8.0 0.00 0.00 0.00 42 1020.8
20260906135405 92 115 1.0 5.0 0.00 0.00 0.00 42 1020.8
20260906134905 93 143 2.0 7.0 0.00 0.00 0.00 43 1020.9
20260906134405 93 112 0.0 9.0 0.00 0.00 0.00 43 1020.8
20260906133905 92 115 1.0 8.0 0.00 0.00 0.00 45 1020.8
20260906133405 92 128 2.0 9.0 0.00 0.00 0.00 45 1020.7
20260906132906 92 111 1.0 7.0 0.00 0.00 0.00 45 1020.8
20260906132405 92 140 1.0 7.0 0.00 0.00 0.00 45 1020.8
20260906131905 92 119 1.0 12.0 0.00 0.00 0.00 46 1020.8
20260906131406 91 136 1.0 8.0 0.00 0.00 0.00 47 1020.7
20260906130906 90 107 2.0 7.0 0.00 0.00 0.00 48 1020.7
20260906130405 91 150 2.0 9.0 0.00 0.00 0.00 47 1020.7
20260906125905 91 85 2.0 9.0 0.00 0.00 0.00 48 1020.8
20260906124905 90 114 3.0 7.0 0.00 0.00 0.00 49 1020.8
20260906123905 90 98 5.0 12.0 0.00 0.00 0.00 49 1020.8
20260906122405 89 158 2.0 9.0 0.00 0.00 0.00 49 1020.9
20260906121905 90 121 2.0 12.0 0.00 0.00 0.00 49 1021.0
20260906121405 90 123 2.0 8.0 0.00 0.00 0.00 49 1021.1
20260906120905 90 116 2.0 8.0 0.00 0.00 0.00 50 1021.1
20260906120405 89 114 0.0 5.0 0.00 0.00 0.00 50 1021.1
20260906115905 90 116 1.0 6.0 0.00 0.00 0.00 48 1021.1
20260906115405 90 113 0.0 5.0 0.00 0.00 0.00 49 1021.0
20260906114905 90 155 1.0 10.0 0.00 0.00 0.00 49 1021.1
20260906114405 89 120 1.0 8.0 0.00 0.00 0.00 50 1021.0
20260906113905 89 164 0.0 7.0 0.00 0.00 0.00 50 1021.1
20260906113405 89 102 0.0 7.0 0.00 0.00 0.00 52 1021.1
20260906112905 88 125 2.0 8.0 0.00 0.00 0.00 53 1021.2
20260906111905 88 97 1.0 8.0 0.00 0.00 0.00 54 1021.3
20260906111405 88 117 0.0 2.0 0.00 0.00 0.00 55 1021.3
20260906110905 88 117 2.0 6.0 0.00 0.00 0.00 55 1021.4
20260906110405 87 142 0.0 7.0 0.00 0.00 0.00 56 1021.4
20260906105405 87 159 2.0 9.0 0.00 0.00 0.00 56 1021.5
20260906104905 86 96 3.0 8.0 0.00 0.00 0.00 56 1021.5
20260906104405 86 97 0.0 1.0 0.00 0.00 0.00 56 1021.6
20260906103905 86 39 0.0 1.0 0.00 0.00 0.00 57 1021.6
20260906103405 85 39 0.0 5.0 0.00 0.00 0.00 57 1021.6
20260906102905 85 157 0.0 1.0 0.00 0.00 0.00 57 1021.7
20260906102405 85 157 0.0 1.0 0.00 0.00 0.00 57 1021.7
20260906101905 84 157 0.0 1.0 0.00 0.00 0.00 58 1021.7
20260906101405 83 157 0.0 1.0 0.00 0.00 0.00 59 1021.7
20260906095905 83 157 0.0 1.0 0.00 0.00 0.00 59 1021.8
20260906095405 83 157 0.0 0.0 0.00 0.00 0.00 61 1021.7
20260906094905 82 158 0.0 1.0 0.00 0.00 0.00 62 1021.6
20260906094405 82 158 0.0 0.0 0.00 0.00 0.00 63 1021.6
20260906093905 82 158 0.0 0.0 0.00 0.00 0.00 62 1021.5
20260906092905 80 158 0.0 0.0 0.00 0.00 0.00 65 1021.4
20260906092405 78 158 0.0 1.0 0.00 0.00 0.00 68 1021.3
20260906091905 78 158 0.0 0.0 0.00 0.00 0.00 69 1021.4
20260906091405 77 158 0.0 1.0 0.00 0.00 0.00 70 1021.4
20260906090905 77 158 0.0 1.0 0.00 0.00 0.00 69 1021.5
20260906090405 77 158 0.0 0.0 0.00 0.00 0.00 71 1021.5
20260906085905 76 158 0.0 1.0 0.00 0.00 0.00 73 1021.4
20260906085405 76 158 0.0 0.0 0.00 0.00 0.00 72 1021.3
20260906084404 75 158 0.0 0.0 0.00 0.00 0.00 74 1021.3
20260906083905 75 158 0.0 0.0 0.00 0.00 0.00 75 1021.2
20260906083405 74 158 0.0 0.0 0.00 0.00 0.00 76 1021.2
20260906082905 73 158 0.0 1.0 0.00 0.00 0.00 77 1021.2
20260906082404 73 158 0.0 1.0 0.00 0.00 0.00 77 1021.2
20260906081905 72 158 0.0 1.0 0.00 0.00 0.00 79 1021.2
20260906081405 72 158 0.0 0.0 0.00 0.00 0.00 79 1021.2
20260906080905 71 158 0.0 0.0 0.00 0.00 0.00 78 1021.2
20260906080405 72 158 0.0 1.0 0.00 0.00 0.00 78 1021.2
20260906075905 72 158 0.0 0.0 0.00 0.00 0.00 76 1021.2
20260906075405 71 158 0.0 0.0 0.00 0.00 0.00 77 1021.1
20260906074905 71 158 0.0 0.0 0.00 0.00 0.00 77 1021.1
20260906074405 70 158 0.0 0.0 0.00 0.00 0.00 78 1021.1
20260906073906 70 158 0.0 0.0 0.00 0.00 0.00 79 1020.9
20260906073405 70 158 0.0 0.0 0.00 0.00 0.00 78 1021.0
20260906072905 70 158 0.0 0.0 0.00 0.00 0.00 79 1021.0
20260906072405 69 158 0.0 0.0 0.00 0.00 0.00 79 1020.9
20260906071405 69 158 0.0 0.0 0.00 0.00 0.00 80 1020.8
20260906070905 69 158 0.0 0.0 0.00 0.00 0.00 81 1020.8
20260906070405 68 158 0.0 0.0 0.00 0.00 0.00 82 1020.8
20260906065905 68 158 0.0 0.0 0.00 0.00 0.00 82 1020.7
20260906065405 68 158 0.0 0.0 0.00 0.00 0.00 82 1020.7
20260906064905 68 158 0.0 0.0 0.00 0.00 0.00 82 1020.6
20260906064404 67 158 0.0 0.0 0.00 0.00 0.00 82 1020.5
20260906063404 67 158 0.0 0.0 0.00 0.00 0.00 81 1020.4
20260906062904 68 158 0.0 0.0 0.00 0.00 0.00 81 1020.2
20260906062405 68 158 0.0 0.0 0.00 0.00 0.00 81 1020.1
20260906061904 68 158 0.0 0.0 0.00 0.00 0.00 81 1019.9
20260906061405 68 158 0.0 0.0 0.00 0.00 0.00 81 1019.9
20260906060905 68 158 0.0 0.0 0.00 0.00 0.00 81 1019.8
20260906060405 68 138 0.0 0.0 0.00 0.00 0.00 81 1019.8
20260906055405 68 138 0.0 0.0 0.00 0.00 0.00 81 1019.7
20260906054905 68 138 0.0 0.0 0.00 0.00 0.00 81 1019.6
20260906054404 68 138 0.0 0.0 0.00 0.00 0.00 81 1019.6
20260906053904 68 138 0.0 0.0 0.00 0.00 0.00 81 1019.6
20260906053404 68 138 0.0 0.0 0.00 0.00 0.00 80 1019.6
20260906052405 68 138 0.0 0.0 0.00 0.00 0.00 80 1019.4
20260906051904 68 138 0.0 0.0 0.00 0.00 0.00 81 1019.4
20260906051405 68 138 0.0 0.0 0.00 0.00 0.00 81 1019.3
20260906050905 69 138 0.0 0.0 0.00 0.00 0.00 82 1019.2
20260906050405 69 138 0.0 0.0 0.00 0.00 0.00 82 1019.2
20260906045404 70 138 0.0 0.0 0.00 0.00 0.00 81 1019.2
20260906044905 70 138 0.0 0.0 0.00 0.00 0.00 81 1019.2
20260906044405 70 138 0.0 0.0 0.00 0.00 0.00 80 1019.2
20260906042905 71 138 0.0 0.0 0.00 0.00 0.00 79 1019.2
20260906042405 71 138 0.0 0.0 0.00 0.00 0.00 80 1019.2
20260906041905 71 138 0.0 1.0 0.00 0.00 0.00 80 1019.3
20260906041405 71 138 0.0 0.0 0.00 0.00 0.00 79 1019.2
20260906040904 71 138 2.0 5.0 0.00 0.00 0.00 79 1019.2
20260906040405 71 138 0.0 5.0 0.00 0.00 0.00 79 1019.2
20260906035405 71 138 0.0 0.0 0.00 0.00 0.00 78 1019.3
20260906033905 71 138 0.0 0.0 0.00 0.00 0.00 78 1019.4
20260906032905 71 138 0.0 0.0 0.00 0.00 0.00 78 1019.5
20260906032405 72 138 0.0 0.0 0.00 0.00 0.00 77 1019.6
20260906031905 72 138 0.0 0.0 0.00 0.00 0.00 77 1019.5
20260906031404 72 138 0.0 1.0 0.00 0.00 0.00 77 1019.6
20260906030405 72 138 0.0 0.0 0.00 0.00 0.00 77 1019.6
20260906025905 72 138 2.0 5.0 0.00 0.00 0.00 77 1019.6
20260906025405 72 138 1.0 5.0 0.00 0.00 0.00 77 1019.7
20260906024904 72 138 1.0 6.0 0.00 0.00 0.00 76 1019.7
20260906024404 72 138 0.0 6.0 0.00 0.00 0.00 76 1019.8
20260906023905 73 138 2.0 6.0 0.00 0.00 0.00 76 1019.8
20260906023404 73 138 3.0 6.0 0.00 0.00 0.00 76 1019.7
20260906022905 73 138 2.0 6.0 0.00 0.00 0.00 75 1019.7
20260906022404 73 138 1.0 6.0 0.00 0.00 0.00 75 1019.7
20260906020905 74 138 1.0 5.0 0.00 0.00 0.00 74 1019.9
20260906020404 74 138 2.0 5.0 0.00 0.00 0.00 74 1019.9
20260906015405 74 138 0.0 0.0 0.00 0.00 0.00 73 1019.9
20260906014905 75 138 1.0 3.0 0.00 0.00 0.00 73 1020.0
20260906014405 75 138 4.0 7.0 0.00 0.00 0.00 73 1020.0
20260906013904 75 138 0.0 5.0 0.00 0.00 0.00 72 1020.1
20260906013405 75 138 1.0 5.0 0.00 0.00 0.00 72 1020.1
20260906012904 76 138 0.0 6.0 0.00 0.00 0.00 72 1020.1
20260906012405 76 138 3.0 6.0 0.00 0.00 0.00 71 1020.0
20260906011905 76 138 1.0 5.0 0.00 0.00 0.00 71 1020.0
20260906011404 76 138 0.0 5.0 0.00 0.00 0.00 71 1020.1
20260906010904 76 138 0.0 0.0 0.00 0.00 0.00 70 1020.1
20260906010405 77 138 0.0 1.0 0.00 0.00 0.00 69 1020.1
20260906005904 77 138 2.0 6.0 0.00 0.00 0.00 69 1020.1
20260906005404 77 138 1.0 7.0 0.00 0.00 0.00 69 1020.2
20260906004905 77 138 0.0 7.0 0.00 0.00 0.00 69 1020.2
20260906004404 77 138 2.0 5.0 0.00 0.00 0.00 69 1020.2
20260906003905 77 138 1.0 5.0 0.00 0.00 0.00 70 1020.2
20260906003405 77 138 0.0 0.0 0.00 0.00 0.00 69 1020.3
20260906002404 77 138 0.0 3.0 0.00 0.00 0.00 69 1020.3
20260906001404 78 138 0.0 5.0 0.00 0.00 0.00 67 1020.3
20260906000905 78 138 3.0 7.0 0.00 0.00 0.00 67 1020.3
20260906000404 78 138 0.0 0.0 0.00 0.00 0.00 67 1020.2
20260905235905 78 138 0.0 1.0 0.00 0.00 0.00 66 1020.2
20260905235404 78 138 0.0 1.0 0.00 0.00 0.00 65 1020.1
20260905234904 78 138 0.0 1.0 0.00 0.00 0.00 65 1020.2
20260905234405 78 138 1.0 5.0 0.00 0.00 0.00 64 1020.2
20260905233405 79 138 1.0 5.0 0.00 0.00 0.00 63 1020.1
20260905232904 79 138 0.0 1.0 0.00 0.00 0.00 63 1020.1
20260905232404 79 138 0.0 1.0 0.00 0.00 0.00 63 1020.0
20260905231904 80 138 0.0 0.0 0.00 0.00 0.00 62 1020.0
20260905231404 80 138 0.0 0.0 0.00 0.00 0.00 62 1019.9
20260905230904 80 138 0.0 5.0 0.00 0.00 0.00 62 1019.8
20260905230404 80 138 0.0 3.0 0.00 0.00 0.00 62 1019.8
20260905225904 80 138 1.0 5.0 0.00 0.00 0.00 62 1019.8
20260905225405 80 138 1.0 7.0 0.00 0.00 0.00 62 1019.8
20260905224904 80 138 2.0 8.0 0.00 0.00 0.00 62 1019.7
20260905224404 80 155 1.0 7.0 0.00 0.00 0.00 62 1019.6
20260905223904 80 146 1.0 6.0 0.00 0.00 0.00 62 1019.5
20260905223404 81 146 0.0 5.0 0.00 0.00 0.00 62 1019.5
20260905222904 81 146 5.0 7.0 0.00 0.00 0.00 62 1019.5
20260905222404 81 142 0.0 1.0 0.00 0.00 0.00 62 1019.4
20260905221905 81 131 0.0 3.0 0.00 0.00 0.00 62 1019.4
20260905221405 82 140 1.0 6.0 0.00 0.00 0.00 62 1019.4
20260905215904 82 122 2.0 9.0 0.00 0.00 0.00 60 1019.2
20260905215405 83 99 3.0 8.0 0.00 0.00 0.00 60 1019.2
20260905214904 83 103 5.0 10.0 0.00 0.00 0.00 60 1019.2